OAL117 LGTS-LTAI

Flight info

Callsign OAL117
Flight time N/A
Altitude 37000
Route ARNAS DCT PEREN UN128 RIKSO UP14 LAVTA UN135 NESIL
Aircraft A320/M-SDE3FGHIRWY/LB1

Departure

Time N/A
Airport Thessaloniki Macedonia International Airport (LGTS)

Arrival

Time 2026-05-05 17:38
Airport Antalya International Airport (LTAI)
Time Latitude Longitude Altitude Speed Heading
2026-05-05 16:58 38.71308 27.05806 35047 ft 445 kts 123°
2026-05-05 16:59 38.67565 27.12149 35043 ft 446 kts 122°
2026-05-05 16:59 38.63848 27.18458 35046 ft 447 kts 122°
2026-05-05 17:00 38.60116 27.24787 35040 ft 448 kts 123°
2026-05-05 17:00 38.56339 27.31169 35038 ft 449 kts 123°
2026-05-05 17:01 38.52554 27.37553 35039 ft 450 kts 123°
2026-05-05 17:01 38.48780 27.43909 35040 ft 451 kts 123°
2026-05-05 17:02 38.44983 27.50293 35038 ft 451 kts 123°
2026-05-05 17:02 38.41193 27.56644 35038 ft 451 kts 123°
2026-05-05 17:03 38.37372 27.63033 35039 ft 452 kts 123°
2026-05-05 17:03 38.33581 27.69389 35038 ft 451 kts 121°
2026-05-05 17:04 38.30241 27.76153 35038 ft 450 kts 117°
2026-05-05 17:04 38.27031 27.82960 35041 ft 450 kts 117°
2026-05-05 17:05 38.23807 27.89831 35041 ft 451 kts 117°
2026-05-05 17:05 38.20578 27.96631 35038 ft 452 kts 118°
2026-05-05 17:06 38.17294 28.03473 35038 ft 453 kts 118°
2026-05-05 17:06 38.14000 28.10328 35036 ft 453 kts 118°
2026-05-05 17:07 38.10690 28.17156 35039 ft 454 kts 119°
2026-05-05 17:07 38.07398 28.23956 35037 ft 455 kts 118°
2026-05-05 17:08 38.04082 28.30826 35036 ft 456 kts 119°
2026-05-05 17:08 38.00770 28.37702 35032 ft 455 kts 118°
2026-05-05 17:09 37.99121 28.41127 34562 ft 455 kts 118°
2026-05-05 17:09 37.97469 28.44531 34001 ft 454 kts 118°
2026-05-05 17:09 37.95805 28.47931 33363 ft 453 kts 118°
2026-05-05 17:09 37.94137 28.51341 32690 ft 453 kts 118°
2026-05-05 17:10 37.92478 28.54740 31989 ft 454 kts 118°
2026-05-05 17:10 37.90840 28.58107 31288 ft 455 kts 118°
2026-05-05 17:10 37.89168 28.61540 30583 ft 456 kts 118°
2026-05-05 17:10 37.87500 28.64967 29825 ft 457 kts 118°
2026-05-05 17:11 37.85827 28.68400 28941 ft 459 kts 118°
2026-05-05 17:11 37.84138 28.71859 28070 ft 461 kts 118°
2026-05-05 17:11 37.82476 28.75257 27666 ft 457 kts 118°
2026-05-05 17:11 37.80801 28.78683 27541 ft 459 kts 118°
2026-05-05 17:12 37.79122 28.82117 27413 ft 459 kts 118°
2026-05-05 17:12 37.77441 28.85555 27293 ft 458 kts 118°
2026-05-05 17:12 37.75763 28.88985 27157 ft 459 kts 118°
2026-05-05 17:12 37.74078 28.92427 26962 ft 458 kts 118°
2026-05-05 17:13 37.72419 28.95820 26760 ft 457 kts 118°
2026-05-05 17:13 37.70743 28.99248 26561 ft 456 kts 118°
2026-05-05 17:13 37.69070 29.02662 26363 ft 455 kts 118°
2026-05-05 17:13 37.67424 29.06021 26161 ft 454 kts 118°
2026-05-05 17:14 37.65764 29.09408 25963 ft 453 kts 118°
2026-05-05 17:14 37.64102 29.12799 25759 ft 452 kts 118°
2026-05-05 17:14 37.62446 29.16174 25572 ft 451 kts 118°
2026-05-05 17:14 37.60798 29.19535 25372 ft 450 kts 118°
2026-05-05 17:15 37.59147 29.22903 25170 ft 449 kts 118°
2026-05-05 17:15 37.57509 29.26245 24950 ft 447 kts 118°
2026-05-05 17:15 37.55893 29.29541 24730 ft 446 kts 118°
2026-05-05 17:15 37.54260 29.32870 24526 ft 445 kts 118°
2026-05-05 17:16 37.52628 29.36198 24308 ft 444 kts 118°
2026-05-05 17:16 37.51006 29.39503 24102 ft 443 kts 118°
2026-05-05 17:16 37.49403 29.42771 23899 ft 442 kts 118°
2026-05-05 17:16 37.47787 29.46067 23689 ft 441 kts 118°
2026-05-05 17:17 37.46179 29.49353 23452 ft 440 kts 118°
2026-05-05 17:17 37.44573 29.52638 23194 ft 439 kts 118°
2026-05-05 17:17 37.42978 29.55912 22936 ft 438 kts 119°
2026-05-05 17:17 37.41390 29.59188 22701 ft 438 kts 119°
2026-05-05 17:18 37.39801 29.62472 22458 ft 437 kts 118°
2026-05-05 17:18 37.38225 29.65732 22217 ft 435 kts 119°
2026-05-05 17:18 37.36473 29.68735 21977 ft 427 kts 130°
2026-05-05 17:18 37.34351 29.71299 21733 ft 420 kts 140°
2026-05-05 17:19 37.31972 29.73368 21497 ft 411 kts 150°
2026-05-05 17:19 37.29436 29.74949 21263 ft 402 kts 156°
2026-05-05 17:19 37.26896 29.76344 21027 ft 393 kts 157°
2026-05-05 17:19 37.24512 29.77656 20803 ft 385 kts 157°
2026-05-05 17:20 37.22111 29.79026 20576 ft 377 kts 151°
2026-05-05 17:20 37.20039 29.80969 20349 ft 369 kts 132°
2026-05-05 17:20 37.18544 29.83554 20125 ft 363 kts 114°
2026-05-05 17:20 37.17741 29.86525 19806 ft 356 kts 97°
2026-05-05 17:21 37.17318 29.89580 19478 ft 355 kts 96°
2026-05-05 17:21 37.16903 29.92623 19144 ft 354 kts 96°
2026-05-05 17:21 37.16489 29.95669 18743 ft 354 kts 96°
2026-05-05 17:22 37.15641 30.01805 17719 ft 359 kts 97°
2026-05-05 17:22 37.15213 30.04838 17378 ft 355 kts 97°
2026-05-05 17:22 37.14787 30.07868 17111 ft 349 kts 97°
2026-05-05 17:22 37.14369 30.10839 16840 ft 343 kts 97°
2026-05-05 17:23 37.13955 30.13784 16582 ft 341 kts 97°
2026-05-05 17:23 37.13545 30.16702 16321 ft 339 kts 97°
2026-05-05 17:23 37.13137 30.19625 16066 ft 338 kts 97°
2026-05-05 17:23 37.12732 30.22525 15807 ft 336 kts 97°
2026-05-05 17:24 37.12332 30.25370 15562 ft 334 kts 97°
2026-05-05 17:24 37.11930 30.28230 15307 ft 333 kts 97°
2026-05-05 17:24 37.11527 30.31089 15059 ft 331 kts 97°
2026-05-05 17:24 37.11129 30.33910 14800 ft 330 kts 98°
2026-05-05 17:25 37.10729 30.36731 14566 ft 328 kts 98°
2026-05-05 17:25 37.10458 30.38631 14396 ft 326 kts 98°
2026-05-05 17:25 37.09926 30.42329 14083 ft 324 kts 98°
2026-05-05 17:25 37.09522 30.45103 13834 ft 323 kts 98°
2026-05-05 17:26 37.09122 30.47869 13569 ft 321 kts 98°
2026-05-05 17:26 37.08738 30.50627 13014 ft 327 kts 97°
2026-05-05 17:26 37.08416 30.53481 12270 ft 335 kts 95°
2026-05-05 17:26 37.08137 30.56405 11656 ft 339 kts 95°
2026-05-05 17:27 37.08071 30.59311 11324 ft 329 kts 78°
2026-05-05 17:27 37.08871 30.61924 11001 ft 317 kts 53°
2026-05-05 17:27 37.10372 30.63817 10678 ft 306 kts 29°
2026-05-05 17:27 37.12308 30.64790 10353 ft 296 kts
2026-05-05 17:28 37.14335 30.65087 10046 ft 292 kts
2026-05-05 17:28 37.16348 30.65360 9717 ft 289 kts
2026-05-05 17:28 37.18337 30.65643 9371 ft 287 kts
2026-05-05 17:28 37.20255 30.66345 9017 ft 288 kts 22°
2026-05-05 17:29 37.21945 30.67631 8687 ft 288 kts 33°
2026-05-05 17:29 37.23550 30.69112 8350 ft 286 kts 37°
2026-05-05 17:29 37.24913 30.70947 8018 ft 288 kts 52°
2026-05-05 17:29 37.25582 30.72392 7796 ft 289 kts 62°
2026-05-05 17:30 37.26708 30.75520 6799 ft 304 kts 63°
2026-05-05 17:30 37.27475 30.78052 5983 ft 316 kts 76°
2026-05-05 17:30 37.27509 30.79866 5676 ft 311 kts 97°
2026-05-05 17:30 37.26634 30.82271 5325 ft 300 kts 130°
2026-05-05 17:31 37.24975 30.83699 5059 ft 283 kts 163°
2026-05-05 17:31 37.23108 30.83921 4937 ft 261 kts 187°
2026-05-05 17:31 37.21370 30.83634 4769 ft 243 kts 190°
2026-05-05 17:31 37.19698 30.83355 4666 ft 242 kts 188°
2026-05-05 17:32 37.18034 30.83118 4578 ft 239 kts 188°
2026-05-05 17:32 37.16421 30.82898 4475 ft 226 kts 188°
2026-05-05 17:32 37.14884 30.82687 4286 ft 220 kts 188°
2026-05-05 17:32 37.13386 30.82480 4114 ft 209 kts 188°
2026-05-05 17:33 37.11977 30.82286 3897 ft 199 kts 188°
2026-05-05 17:33 37.10636 30.82102 3709 ft 190 kts 189°
2026-05-05 17:33 37.09353 30.81925 3554 ft 179 kts 189°
2026-05-05 17:33 37.08149 30.81759 3457 ft 171 kts 188°
2026-05-05 17:34 37.06983 30.81598 3267 ft 167 kts 189°
2026-05-05 17:34 37.05842 30.81440 3077 ft 162 kts 189°
2026-05-05 17:34 37.04727 30.81287 2853 ft 160 kts 189°
2026-05-05 17:34 37.03629 30.81136 2632 ft 158 kts 189°
2026-05-05 17:35 37.02540 30.80986 2417 ft 157 kts 189°
2026-05-05 17:35 37.01452 30.80836 2205 ft 157 kts 190°
2026-05-05 17:35 37.00365 30.80686 1999 ft 158 kts 189°
2026-05-05 17:35 36.99274 30.80536 1787 ft 156 kts 189°
2026-05-05 17:36 36.98204 30.80390 1566 ft 154 kts 189°
2026-05-05 17:36 36.97151 30.80245 1358 ft 150 kts 188°
2026-05-05 17:36 36.96129 30.80105 1142 ft 145 kts 187°
2026-05-05 17:36 36.95137 30.79968 943 ft 142 kts 187°
2026-05-05 17:37 36.94166 30.79835 742 ft 139 kts 188°
2026-05-05 17:37 36.93201 30.79702 560 ft 140 kts 188°
2026-05-05 17:37 36.92230 30.79569 369 ft 141 kts 190°
2026-05-05 17:37 36.91254 30.79438 206 ft 139 kts 190°
2026-05-05 17:38 36.90399 30.79315 188 ft 107 kts 184°
2026-05-05 17:38 36.89926 30.79240 194 ft 49 kts 189°
2026-05-05 17:38 36.89647 30.79229 192 ft 36 kts 160°
2026-05-05 17:38 36.89420 30.79314 190 ft 32 kts 159°
2026-05-05 17:39 36.89349 30.79467 190 ft 4 kts 103°
2026-05-05 17:39 36.89348 30.79474 190 ft 2 kts 102°
2026-05-05 17:39 36.89347 30.79500 196 ft 2 kts 59°
2026-05-05 17:39 36.89377 30.79482 190 ft 10 kts 326°
2026-05-05 17:40 36.89460 30.79426 191 ft 13 kts 350°
2026-05-05 17:40 36.89559 30.79420 196 ft 15 kts
2026-05-05 17:40 36.89673 30.79433 196 ft 18 kts
2026-05-05 17:40 36.89802 30.79460 189 ft 20 kts
2026-05-05 17:41 36.89876 30.79579 199 ft 18 kts 51°
2026-05-05 17:41 36.89994 30.79626 189 ft 19 kts
2026-05-05 17:41 36.90135 30.79644 189 ft 22 kts
2026-05-05 17:41 36.90293 30.79667 195 ft 24 kts
2026-05-05 17:42 36.90467 30.79689 189 ft 26 kts
2026-05-05 17:42 36.90655 30.79713 191 ft 28 kts
2026-05-05 17:42 36.90855 30.79741 193 ft 30 kts
2026-05-05 17:42 36.91067 30.79781 199 ft 32 kts
2026-05-05 17:43 36.91230 30.79832 189 ft 17 kts 56°
2026-05-05 17:43 36.91251 30.79920 198 ft 11 kts 71°
2026-05-05 17:43 36.91255 30.80012 189 ft 6 kts 97°
2026-05-05 17:43 36.91252 30.80063 189 ft 0 kts 96°